Volver al catálogo

GLOBALSTAR M104

ActivoComunicacionesLEO
NORAD 100328·PAYLOAD·🇺🇸 United States

Lanzado Aug 16, 2026 desde Cape Canaveral Space Force Station

Loading…

Próximos Pases (próximas 24 horas)

TLE

EnvejeciendoSource: Space-Track

Época: Sep 11, 2026, 10:38 UTC

1 A0328U 26185D   26254.44312422  .00000019  00000-0  50472-4 0  9998
2 A0328  51.9883 124.9635 0009153 327.5937  32.4450 14.48491082  3858

Sigue GLOBALSTAR M104 en tiempo real con AllMySat

Download on the App Store